WD4LSS Weather Reports


time (UTC)temp
C
wind
direction
speed
KPH
gust
KPH
rain 1hr
cm
rain 24hr
cm
rain mn
cm
humidity
%
barometer
mb
20260510190516 28 0.0 4.8 0.00 0.00 0.00 34 1016.0
20260510190016 28 248 1.6 4.8 0.00 0.00 0.00 31 1016.0
20260510185516 28 248 1.6 6.4 0.00 0.00 0.00 35 1016.0
20260510185016 28 248 1.6 6.4 0.00 0.00 0.00 34 1016.1
20260510184516 28 315 4.8 12.9 0.00 0.00 0.00 34 1016.0
20260510184016 28 0 3.2 8.0 0.00 0.00 0.00 34 1016.0
20260510183516 27 158 1.6 6.4 0.00 0.00 0.00 38 1016.2
20260510183036 27 315 3.2 9.7 0.00 0.00 0.00 32 1016.1
20260510182516 27 315 3.2 9.7 0.00 0.00 0.00 34 1016.1
20260510182016 27 315 3.2 11.3 0.00 0.00 0.00 32 1016.2
20260510181516 27 315 1.6 8.0 0.00 0.00 0.00 38 1016.2
20260510181016 27 315 3.2 11.3 0.00 0.00 0.00 38 1016.3
20260510180516 27 338 3.2 8.0 0.00 0.00 0.00 34 1016.4
20260510180016 27 293 3.2 9.7 0.00 0.00 0.00 36 1016.4
20260510175516 26 0 3.2 8.0 0.00 0.00 0.00 38 1016.5
20260510175016 27 315 4.8 11.3 0.00 0.00 0.00 37 1016.5
20260510174516 27 315 3.2 8.0 0.00 0.00 0.00 35 1016.5
20260510174016 27 315 3.2 11.3 0.00 0.00 0.00 36 1016.5
20260510173536 27 315 4.8 12.9 0.00 0.00 0.00 36 1016.5
20260510173016 26 293 4.8 14.5 0.00 0.00 0.00 39 1016.7
20260510172516 26 315 1.6 9.7 0.00 0.00 0.00 39 1016.7
20260510172016 26 315 1.6 6.4 0.00 0.00 0.00 39 1016.7
20260510171516 26 315 3.2 11.3 0.00 0.00 0.00 39 1016.7
20260510171036 26 315 3.2 6.4 0.00 0.00 0.00 40 1016.7
20260510170516 26 338 1.6 6.4 0.00 0.00 0.00 43 1016.8
20260510170016 26 0.0 3.2 0.00 0.00 0.00 37 1016.8
20260510165516 26 338 3.2 9.7 0.00 0.00 0.00 38 1016.7
20260510165016 26 315 4.8 11.3 0.00 0.00 0.00 38 1016.8
20260510164516 26 293 1.6 6.4 0.00 0.00 0.00 42 1016.8
20260510164036 26 113 1.6 6.4 0.00 0.00 0.00 40 1016.9
20260510163516 26 113 6.4 12.9 0.00 0.00 0.00 39 1016.9
20260510163036 25 90 1.6 8.0 0.00 0.00 0.00 42 1016.9
20260510162516 25 0 3.2 14.5 0.00 0.00 0.00 43 1017.0
20260510162016 25 338 3.2 9.7 0.00 0.00 0.00 48 1017.0
20260510161516 25 113 1.6 14.5 0.00 0.00 0.00 48 1017.0
20260510161016 25 315 1.6 9.7 0.00 0.00 0.00 49 1017.0
20260510160516 25 338 1.6 4.8 0.00 0.00 0.00 48 1017.0
20260510160016 25 338 3.2 8.0 0.00 0.00 0.00 48 1017.0
20260510155516 25 338 3.2 6.4 0.00 0.00 0.00 49 1017.1
20260510155016 25 338 3.2 8.0 0.00 0.00 0.00 48 1017.1
20260510154516 25 293 3.2 11.3 0.00 0.00 0.00 50 1017.2
20260510154015 25 270 4.8 14.5 0.00 0.00 0.00 51 1017.1
20260510153536 24 315 4.8 8.0 0.00 0.00 0.00 50 1017.1
20260510153016 24 113 1.6 6.4 0.00 0.00 0.00 54 1017.2
20260510152516 24 293 3.2 8.0 0.00 0.00 0.00 53 1017.2
20260510152016 23 338 3.2 9.7 0.00 0.00 0.00 52 1017.1
20260510151535 23 338 3.2 8.0 0.00 0.00 0.00 53 1017.1
20260510151016 23 338 3.2 9.7 0.00 0.00 0.00 54 1017.2
20260510150536 23 293 1.6 4.8 0.00 0.00 0.00 60 1017.2
20260510150035 23 315 3.2 6.4 0.00 0.00 0.00 58 1017.2
20260510145516 23 315 1.6 4.8 0.00 0.00 0.00 57 1017.3
20260510145015 23 315 1.6 6.4 0.00 0.00 0.00 59 1017.2
20260510144515 22 338 1.6 6.4 0.00 0.00 0.00 59 1017.2
20260510144016 22 293 1.6 6.4 0.00 0.00 0.00 59 1017.3
20260510143516 22 0 1.6 4.8 0.00 0.00 0.00 64 1017.3
20260510143016 22 315 1.6 4.8 0.00 0.00 0.00 65 1017.3
20260510142516 22 315 1.6 4.8 0.00 0.00 0.00 65 1017.4
20260510142016 21 315 1.6 4.8 0.00 0.00 0.00 64 1017.3
20260510141516 21 0.0 1.6 0.00 0.00 0.00 68 1017.2
20260510141035 20 0.0 3.2 0.00 0.00 0.00 71 1017.3
20260510140516 20 315 1.6 3.2 0.00 0.00 0.00 70 1017.2
20260510140015 20 293 1.6 6.4 0.00 0.00 0.00 71 1017.3
20260510135515 20 338 1.6 6.4 0.00 0.00 0.00 71 1017.2
20260510135015 19 338 1.6 6.4 0.00 0.00 0.00 74 1017.3
20260510134516 18 315 1.6 4.8 0.00 0.00 0.00 74 1017.2
20260510134036 18 315 1.6 6.4 0.00 0.00 0.00 76 1017.2
20260510133515 18 315 1.6 3.2 0.00 0.00 0.00 78 1017.2
20260510133015 17 0.0 4.8 0.00 0.00 0.00 82 1017.1
20260510132515 17 270 1.6 6.4 0.00 0.00 0.00 83 1017.0
20260510132015 17 0.0 3.2 0.00 0.00 0.00 84 1017.0
20260510131535 16 315 1.6 4.8 0.00 0.00 0.00 86 1017.0
20260510131035 16 338 1.6 3.2 0.00 0.00 0.00 89 1017.0
20260510130515 16 0.0 3.2 0.00 0.00 0.00 90 1016.9
20260510130015 15 0.0 3.2 0.00 0.00 0.00 91 1016.9
20260510125515 15 338 1.6 4.8 0.00 0.00 0.00 93 1017.0
20260510125035 15 315 1.6 6.4 0.00 0.00 0.00 95 1017.0
20260510124515 14 315 3.2 6.4 0.00 0.00 0.00 97 1017.0
20260510124017 14 0.0 1.6 0.00 0.00 0.00 98 1016.8
20260510123517 13 0.0 1.6 0.00 0.00 0.00 98 1016.9
20260510123017 13 0 1.6 3.2 0.00 0.00 0.00 99 1016.7
20260510122517 13 0.0 3.2 0.00 0.00 0.00 98 1016.6
20260510122017 13 0.0 1.6 0.00 0.00 0.00 98 1016.5
20260510121517 12 0.0 0.0 0.00 0.00 0.00 98 1016.5
20260510121017 12 0.0 0.0 0.00 0.00 0.00 98 1016.5
20260510120537 12 0.0 0.0 0.00 0.00 0.00 98 1016.3
20260510120037 12 0.0 0.0 0.00 0.00 0.00 98 1015.9
20260510115517 12 0.0 0.0 0.00 0.00 0.00 98 1016.0
20260510115017 12 0.0 0.0 0.00 0.00 0.00 97 1015.9
20260510114517 11 0.0 0.0 0.00 0.00 0.00 97 1015.9
20260510114017 11 0.0 1.6 0.00 0.00 0.00 98 1015.8
20260510113517 11 0.0 0.0 0.00 0.00 0.00 97 1015.7
20260510113017 11 0.0 0.0 0.00 0.00 0.00 97 1015.7
20260510112517 11 0.0 0.0 0.00 0.00 0.00 96 1015.6
20260510112017 11 0.0 0.0 0.00 0.00 0.00 96 1015.5
20260510111517 11 0.0 0.0 0.00 0.00 0.00 96 1015.5
20260510111017 11 0.0 0.0 0.00 0.00 0.00 96 1015.4
20260510110537 11 0.0 0.0 0.00 0.00 0.00 95 1015.3
20260510110017 11 0.0 0.0 0.00 0.00 0.00 95 1015.3
20260510105517 11 0.0 0.0 0.00 0.00 0.00 95 1015.1
20260510105017 11 0.0 0.0 0.00 0.00 0.00 95 1015.1
20260510104517 11 0.0 0.0 0.00 0.00 0.00 94 1015.0
20260510104017 11 0.0 0.0 0.00 0.00 0.00 94 1014.8
20260510103537 11 0.0 0.0 0.00 0.00 0.00 94 1014.7
20260510103037 11 0.0 0.0 0.00 0.00 0.00 94 1014.7
20260510102517 11 0.0 0.0 0.00 0.00 0.00 94 1014.7
20260510102017 11 0.0 0.0 0.00 0.00 0.00 94 1014.5
20260510101517 11 0.0 0.0 0.00 0.00 0.00 94 1014.3
20260510101017 11 0.0 0.0 0.00 0.00 0.00 94 1014.4
20260510100517 11 0.0 0.0 0.00 0.00 0.00 94 1014.3
20260510100037 11 0.0 0.0 0.00 0.00 0.00 94 1014.1
20260510095537 11 0.0 0.0 0.00 0.00 0.00 94 1014.0
20260510095025 12 0.0 0.0 0.00 0.00 0.00 94 1014.1
20260510094525 12 0.0 0.0 0.00 0.00 0.00 94 1014.1
20260510094025 12 0.0 0.0 0.00 0.00 0.00 94 1014.0
20260510093525 12 0.0 0.0 0.00 0.00 0.00 94 1014.1
20260510093025 12 0.0 0.0 0.00 0.00 0.00 94 1014.0
20260510092525 12 0.0 0.0 0.00 0.00 0.00 94 1014.1
20260510092025 12 0.0 0.0 0.00 0.00 0.00 94 1014.0
20260510091525 12 0.0 0.0 0.00 0.00 0.00 94 1014.0
20260510091045 12 0.0 0.0 0.00 0.00 0.00 94 1014.0
20260510090525 12 0.0 0.0 0.00 0.00 0.00 94 1014.0
20260510090017 12 0.0 0.0 0.00 0.00 0.00 94 1014.0
20260510085517 12 0.0 0.0 0.00 0.00 0.00 94 1013.9
20260510085017 12 0.0 0.0 0.00 0.00 0.00 94 1013.9
20260510084517 12 0.0 0.0 0.00 0.00 0.00 94 1013.7
20260510084017 12 0.0 0.0 0.00 0.00 0.00 94 1013.6
20260510083537 12 0.0 0.0 0.00 0.00 0.00 94 1013.6
20260510083017 12 0.0 0.0 0.00 0.00 0.00 94 1013.5
20260510082516 12 0.0 0.0 0.00 0.00 0.00 94 1013.6
20260510082017 13 0.0 0.0 0.00 0.00 0.00 94 1013.5
20260510081517 13 0.0 0.0 0.00 0.00 0.00 94 1013.4
20260510081017 13 0.0 0.0 0.00 0.00 0.00 94 1013.4
20260510080517 13 0.0 0.0 0.00 0.00 0.00 94 1013.3
20260510080017 13 0.0 0.0 0.00 0.00 0.00 94 1013.3
20260510075517 13 0.0 0.0 0.00 0.00 0.00 94 1013.3
20260510075017 13 0.0 0.0 0.00 0.00 0.00 94 1013.2
20260510074517 13 0.0 0.0 0.00 0.00 0.00 94 1013.1
20260510074017 13 0.0 0.0 0.00 0.00 0.00 94 1013.1
20260510073517 13 0.0 0.0 0.00 0.00 0.00 94 1013.2
20260510073016 13 0.0 0.0 0.00 0.00 0.00 94 1013.0
20260510072517 13 0.0 0.0 0.00 0.00 0.00 94 1013.1
20260510072017 13 0.0 0.0 0.00 0.00 0.00 94 1013.2
20260510071517 13 0.0 0.0 0.00 0.00 0.00 94 1013.0
20260510071036 13 0.0 0.0 0.00 0.00 0.00 94 1013.1
20260510070536 13 0.0 0.0 0.00 0.00 0.00 94 1012.9
20260510070017 13 0.0 0.0 0.00 0.00 0.00 94 1012.9
20260510065537 13 0.0 0.0 0.00 0.00 0.00 94 1013.0
20260510065016 13 0.0 0.0 0.00 0.00 0.00 94 1013.0
20260510064542 13 0.0 0.0 0.00 0.00 0.00 94 1012.8
20260510064022 13 0.0 0.0 0.00 0.00 0.00 94 1013.1
20260510063522 13 0.0 0.0 0.00 0.00 0.00 94 1013.1
20260510063022 13 0.0 0.0 0.00 0.00 0.00 94 1012.9
20260510062523 14 0.0 0.0 0.00 0.00 0.00 93 1012.9
20260510062022 14 0.0 0.0 0.00 0.00 0.00 93 1013.0
20260510061522 14 0.0 0.0 0.00 0.00 0.00 93 1013.0
20260510061023 14 0.0 0.0 0.00 0.00 0.00 93 1013.2
20260510060543 14 0.0 0.0 0.00 0.00 0.00 94 1013.3
20260510060017 14 0.0 0.0 0.00 0.00 0.00 93 1013.3
20260510055516 14 0.0 0.0 0.00 0.00 0.00 93 1013.2
20260510055016 14 0.0 0.0 0.00 0.00 0.00 93 1013.1
20260510054516 14 0.0 1.6 0.00 0.00 0.00 93 1013.1
20260510054036 14 0.0 1.6 0.00 0.00 0.00 93 1013.1
20260510053516 15 0.0 0.0 0.00 0.00 0.00 93 1013.0
20260510053016 15 0.0 0.0 0.00 0.00 0.00 93 1013.3
20260510052516 15 0.0 0.0 0.00 0.00 0.00 93 1013.3
20260510052016 15 0.0 0.0 0.00 0.00 0.00 93 1013.4
20260510051517 15 0.0 3.2 0.00 0.00 0.00 93 1013.3
20260510051016 15 0.0 0.0 0.00 0.00 0.00 92 1013.3
20260510050516 15 0.0 0.0 0.00 0.00 0.00 92 1013.3
20260510050016 15 0.0 1.6 0.00 0.00 0.00 92 1013.4
20260510045536 15 0.0 1.6 0.00 0.00 0.00 92 1013.2
20260510045036 15 0.0 0.0 0.00 0.00 0.00 92 1013.2
20260510044516 15 0.0 0.0 0.00 0.00 0.00 92 1013.2
20260510044016 15 0.0 0.0 0.00 0.00 0.00 92 1013.3
20260510043516 15 0.0 0.0 0.00 0.00 0.00 92 1013.5
20260510043016 15 0.0 0.0 0.00 0.00 0.00 91 1013.5
20260510042516 15 0.0 0.0 0.00 0.00 0.00 91 1013.5
20260510042016 15 0.0 0.0 0.00 0.00 0.00 91 1013.5
20260510041516 15 0.0 1.6 0.00 0.00 0.00 91 1013.4
20260510041016 15 0.0 1.6 0.00 0.00 0.00 91 1013.4
20260510040516 15 0.0 0.0 0.00 0.00 0.00 91 1013.3
20260510040016 16 0.0 0.0 0.00 0.00 0.00 91 1013.2
20260510035515 16 0.0 0.0 0.00 0.00 0.00 91 1013.4
20260510035015 16 0.0 0.0 0.00 0.00 0.00 90 1013.4
20260510034516 16 0.0 0.0 0.00 0.00 0.00 90 1013.3
20260510034015 16 0.0 0.0 0.00 0.00 0.00 90 1013.4
20260510033515 16 0.0 0.0 0.00 0.00 0.00 90 1013.4
20260510033015 16 0.0 0.0 0.00 0.00 0.00 90 1013.3
20260510032515 16 0.0 0.0 0.00 0.00 0.00 89 1013.4
20260510032035 16 0.0 0.0 0.00 0.00 0.00 89 1013.5
20260510031517 16 0.0 0.0 0.00 0.00 0.00 89 1013.3
20260510031017 16 0.0 0.0 0.00 0.00 0.00 89 1013.3
20260510030517 16 0.0 0.0 0.00 0.00 0.00 88 1013.4
20260510030017 16 0.0 0.0 0.00 0.00 0.00 88 1013.3
20260510025517 16 0.0 0.0 0.00 0.00 0.00 88 1013.3
20260510025017 16 0.0 0.0 0.00 0.00 0.00 88 1013.3
20260510024517 16 0.0 0.0 0.00 0.00 0.00 87 1013.3
20260510024017 17 0.0 0.0 0.00 0.00 0.00 87 1013.3
20260510023537 17 0.0 0.0 0.00 0.00 0.00 87 1013.2
20260510023017 17 0.0 0.0 0.00 0.00 0.00 87 1013.2
20260510022517 17 0.0 0.0 0.00 0.00 0.00 86 1013.1
20260510022017 17 0.0 0.0 0.00 0.00 0.00 86 1013.0
20260510021517 17 0.0 1.6 0.00 0.00 0.00 86 1013.0
20260510021037 17 0.0 0.0 0.00 0.00 0.00 85 1012.8
20260510020517 17 0.0 0.0 0.00 0.00 0.00 85 1012.8
20260510020017 17 0.0 0.0 0.00 0.00 0.00 84 1012.8
20260510015537 17 0.0 0.0 0.00 0.00 0.00 84 1012.7
20260510015017 17 0.0 0.0 0.00 0.00 0.00 84 1012.7
20260510014537 18 0.0 0.0 0.00 0.00 0.00 84 1012.7
20260510014017 18 0.0 0.0 0.00 0.00 0.00 83 1012.6
20260510013517 18 0.0 1.6 0.00 0.00 0.00 83 1012.4
20260510013017 18 0.0 1.6 0.00 0.00 0.00 83 1012.3
20260510012517 18 0.0 1.6 0.00 0.00 0.00 83 1012.4
20260510012017 18 0.0 1.6 0.00 0.00 0.00 82 1012.2
20260510011537 18 0.0 1.6 0.00 0.00 0.00 82 1012.1
20260510011017 18 0.0 1.6 0.00 0.00 0.00 82 1011.9
20260510010517 18 0.0 1.6 0.00 0.00 0.00 81 1011.9
20260510010017 18 0.0 0.0 0.00 0.00 0.00 81 1011.9
20260510005517 19 0.0 1.6 0.00 0.00 0.00 80 1011.7
20260510005017 19 0.0 1.6 0.00 0.00 0.00 80 1011.5
20260510004517 19 0.0 1.6 0.00 0.00 0.00 79 1011.5
20260510004017 20 0.0 1.6 0.00 0.00 0.00 79 1011.4
20260510003537 20 0.0 1.6 0.00 0.00 0.00 78 1011.3
20260510003017 20 0.0 0.0 0.00 0.00 0.00 78 1011.2
20260510002517 20 0.0 0.0 0.00 0.00 0.00 78 1011.2
20260510002037 20 0.0 1.6 0.00 0.00 0.00 77 1011.4
20260510001517 20 0.0 1.6 0.00 0.00 0.00 77 1011.3
20260510001017 20 0.0 0.0 0.00 0.00 0.00 76 1011.0
20260510000517 20 0.0 4.8 0.00 0.00 0.00 76 1011.0
20260510000017 20 0.0 1.6 0.00 0.00 0.00 76 1010.8
20260509235517 21 0.0 1.6 0.00 0.00 0.00 75 1010.8
20260509235017 21 0.0 0.0 0.00 0.00 0.00 75 1011.0
20260509234517 21 0.0 0.0 0.00 0.00 0.00 75 1011.0
20260509234017 21 0.0 1.6 0.00 0.00 0.00 74 1011.0
20260509233537 21 0.0 1.6 0.00 0.00 0.00 74 1010.9
20260509233017 21 0.0 3.2 0.00 0.00 0.00 74 1010.6
20260509232517 21 0.0 8.0 0.00 0.00 0.00 73 1010.7
20260509232017 21 0.0 6.4 0.00 0.00 0.00 73 1010.5
20260509231517 21 0.0 3.2 0.00 0.00 0.00 74 1010.4
20260509231037 21 0.0 4.8 0.00 0.00 0.00 73 1010.5
20260509230517 22 270 1.6 6.4 0.00 0.00 0.00 74 1010.5
20260509230036 22 0.0 4.8 0.00 0.00 0.00 73 1010.4
20260509225517 22 0.0 3.2 0.00 0.00 0.00 73 1010.5
20260509225017 22 90 1.6 6.4 0.00 0.00 0.00 72 1010.3
20260509224517 22 90 1.6 4.8 0.00 0.00 0.00 72 1010.3
20260509224017 22 135 1.6 4.8 0.00 0.00 0.00 73 1010.2
20260509223517 22 0.0 3.2 0.00 0.00 0.00 73 1010.2
20260509223036 22 0.0 3.2 0.00 0.00 0.00 72 1010.2
20260509222517 22 0.0 3.2 0.00 0.00 0.00 72 1010.2
20260509222017 22 0.0 4.8 0.00 0.00 0.00 72 1010.2
20260509221536 22 0.0 4.8 0.00 0.00 0.00 71 1010.1
20260509221017 22 0.0 1.6 0.00 0.00 0.00 71 1010.2
20260509220517 22 0.0 4.8 0.00 0.00 0.00 70 1010.3
20260509220017 22 158 1.6 6.4 0.00 0.00 0.00 69 1010.3
20260509215517 22 248 1.6 8.0 0.00 0.00 0.00 69 1010.2
20260509215017 22 0.0 3.2 0.00 0.00 0.00 70 1010.3
20260509214517 22 248 1.6 11.3 0.00 0.00 0.00 68 1010.1
20260509214017 22 248 1.6 9.7 0.00 0.00 0.00 68 1010.0
20260509213536 22 270 1.6 11.3 0.00 0.00 0.00 68 1010.2
20260509213037 22 248 1.6 11.3 0.00 0.00 0.00 68 1010.2
20260509212517 22 68 1.6 12.9 0.00 0.00 0.00 68 1010.0
20260509212017 23 135 1.6 6.4 0.00 0.00 0.00 68 1010.1
20260509211517 23 180 1.6 6.4 0.00 0.00 0.00 66 1010.3
20260509211016 23 248 1.6 11.3 0.00 0.00 0.00 66 1010.2
20260509210516 23 270 1.6 6.4 0.00 0.00 0.00 64 1010.2
20260509210016 23 315 6.4 14.5 0.00 0.00 0.00 63 1010.0
20260509205517 23 293 4.8 14.5 0.00 0.00 0.00 65 1010.1
20260509205036 23 293 4.8 16.1 0.00 0.00 0.00 65 1010.2
20260509204517 23 113 1.6 6.4 0.00 0.00 0.00 69 1009.9
20260509204016 23 135 1.6 6.4 0.00 0.00 0.00 70 1009.9
20260509203516 23 135 1.6 3.2 0.00 0.00 0.00 68 1010.0
20260509203017 23 113 1.6 11.3 0.00 0.00 0.00 67 1010.1
20260509202516 23 293 3.2 11.3 0.00 0.00 0.00 68 1010.2
20260509202036 23 90 1.6 6.4 0.00 0.00 0.00 67 1010.2
20260509201536 23 90 1.6 3.2 0.00 0.00 0.00 66 1010.4
20260509201016 23 113 1.6 8.0 0.00 0.00 0.00 67 1010.3
20260509200516 23 293 1.6 6.4 0.00 0.00 0.00 66 1010.4
20260509200036 23 270 3.2 11.3 0.00 0.00 0.00 67 1010.5
20260509195516 23 0 3.2 17.7 0.00 0.00 0.00 66 1010.4
20260509195016 23 293 1.6 11.3 0.00 0.00 0.00 66 1010.5
20260509194516 23 293 4.8 20.9 0.00 0.00 0.00 66 1010.5
20260509194036 23 293 3.2 11.3 0.00 0.00 0.00 67 1010.5
20260509193516 23 293 3.2 9.7 0.00 0.00 0.00 67 1010.5
20260509193016 23 293 6.4 17.7 0.00 0.00 0.00 66 1010.7
20260509192536 23 293 4.8 14.5 0.00 0.00 0.00 66 1010.7
20260509192017 23 270 1.6 6.4 0.00 0.00 0.00 70 1010.8
20260509191516 23 0 3.2 11.3 0.00 0.00 0.00 67 1011.0
20260509191016 23 225 3.2 12.9 0.00 0.00 0.00 66 1011.1